This is the latest recevied weather packets stored in our database for station/object WA6ODQ-13. If no packets are shown the sender has not sent any weather packets the latest 10 day(s).
| Time | Temp. | Humidity | Pressure | Rain* | Wind** | Luminosity | Snow |
|---|---|---|---|---|---|---|---|
| 1788653909 | 27.78° C | 39% | 1011 hPa | 0 mm | - | 230 W/m² | - |
| 1788653604 | 27.78° C | 39% | 1010.9 hPa | 0 mm | - | 271 W/m² | - |
| 1788653299 | 27.78° C | 40% | 1011 hPa | 0 mm | - | 270 W/m² | - |
| 1788652994 | 27.78° C | 39% | 1010.8 hPa | 0 mm | - | 280 W/m² | - |
| 1788652689 | 28.33° C | 40% | 1011 hPa | 0 mm | - | 281 W/m² | - |
| 1788652389 | 28.33° C | 39% | 1010.8 hPa | 0 mm | - | 292 W/m² | - |
| 1788652084 | 28.33° C | 39% | 1010.9 hPa | 0 mm | - | 305 W/m² | - |
| 1788651779 | 28.89° C | 37% | 1011 hPa | 0 mm | - | 319 W/m² | - |
| 1788651474 | 29.44° C | 31% | 1010.9 hPa | 0 mm | - | 333 W/m² | - |
| 1788651174 | 28.89° C | 31% | 1010.7 hPa | 0 mm | - | 346 W/m² | - |
| 1788650873 | 28.89° C | 31% | 1010.9 hPa | 0 mm | - | 359 W/m² | - |
| 1788650569 | 29.44° C | 30% | 1011 hPa | 0 mm | - | 373 W/m² | - |
| 1788650265 | 28.89° C | 30% | 1010.9 hPa | 0 mm | - | 387 W/m² | - |
| 1788649960 | 28.89° C | 30% | 1011 hPa | 0 mm | - | 398 W/m² | - |
| 1788649656 | 29.44° C | 29% | 1010.9 hPa | 0 mm | - | 412 W/m² | - |
| 1788649354 | 29.44° C | 26% | 1010.9 hPa | 0 mm | - | 424 W/m² | - |
| 1788649076 | 29.44° C | 30% | 1011.2 hPa | 0 mm | - | 437 W/m² | - |
| 1788648749 | 29.44° C | 29% | 1011 hPa | 0 mm | - | 448 W/m² | - |
| 1788648448 | 28.89° C | 30% | 1011.2 hPa | 0 mm | - | 460 W/m² | - |
| 1788648143 | 28.33° C | 31% | 1011.2 hPa | 0 mm | - | 471 W/m² | - |
| 1788647840 | 28.89° C | 30% | 1011.2 hPa | 0 mm | - | 483 W/m² | - |
| 1788647536 | 28.89° C | 29% | 1011.2 hPa | 0 mm | - | 494 W/m² | - |
| 1788647232 | 28.33° C | 30% | 1011.3 hPa | 0 mm | - | 505 W/m² | - |
| 1788646946 | 28.33° C | 31% | 1011.1 hPa | 0 mm | - | 516 W/m² | - |
| 1788646627 | 28.89° C | 31% | 1011.1 hPa | 0 mm | - | 525 W/m² | - |
* Rain latest hour (hover to see other rain measurements)
** Current wind speed in m/s (hover to see current wind gust speed)